SKY280 KPDX-KEUG

Flight info

Callsign SKY280
Flight time 0h 20m
Altitude 15000
Route BTG V23 EMADE/N0370F140 V23 EUG
Aircraft A320/M-SDE3FGHIRWY/LB1

Departure

Time 2026-05-04 00:07
Airport Portland International Airport (KPDX)

Arrival

Time 2026-05-04 00:28
Airport Eugene Airport (KEUG)
Time Latitude Longitude Altitude Speed Heading
2026-05-04 00:04 45.57876 -122.58731 34 ft 0 kts 209°
2026-05-04 00:04 45.57883 -122.58725 42 ft 2 kts 209°
2026-05-04 00:04 45.57898 -122.58714 33 ft 2 kts 209°
2026-05-04 00:04 45.57912 -122.58702 33 ft 2 kts 209°
2026-05-04 00:05 45.57927 -122.58696 32 ft 2 kts 151°
2026-05-04 00:05 45.57930 -122.58694 33 ft 2 kts 124°
2026-05-04 00:05 45.57914 -122.58661 34 ft 6 kts 124°
2026-05-04 00:05 45.57891 -122.58601 34 ft 8 kts 102°
2026-05-04 00:06 45.57900 -122.58518 33 ft 10 kts 37°
2026-05-04 00:06 45.57967 -122.58466 34 ft 12 kts 27°
2026-05-04 00:06 45.58050 -122.58448 33 ft 12 kts 319°
2026-05-04 00:06 45.58090 -122.58561 35 ft 13 kts 297°
2026-05-04 00:07 45.58187 -122.58767 36 ft 55 kts 304°
2026-05-04 00:07 45.58491 -122.59532 36 ft 118 kts 298°
2026-05-04 00:07 45.58967 -122.60731 227 ft 145 kts 298°
2026-05-04 00:07 45.59443 -122.61953 960 ft 141 kts 300°
2026-05-04 00:08 45.59929 -122.63202 1397 ft 152 kts 300°
2026-05-04 00:08 45.60173 -122.64776 1688 ft 179 kts 266°
2026-05-04 00:08 45.59601 -122.66495 1943 ft 211 kts 224°
2026-05-04 00:08 45.58216 -122.67471 2333 ft 239 kts 195°
2026-05-04 00:09 45.56515 -122.68012 2787 ft 263 kts 192°
2026-05-04 00:09 45.54666 -122.68530 3475 ft 275 kts 190°
2026-05-04 00:09 45.52773 -122.69044 4415 ft 279 kts 190°
2026-05-04 00:09 45.50857 -122.69574 5366 ft 282 kts 190°
2026-05-04 00:10 45.48914 -122.70126 6312 ft 285 kts 191°
2026-05-04 00:10 45.46962 -122.70690 7214 ft 288 kts 190°
2026-05-04 00:10 45.44989 -122.71266 8169 ft 290 kts 191°
2026-05-04 00:10 45.43013 -122.71848 9100 ft 292 kts 190°
2026-05-04 00:11 45.41022 -122.72478 9988 ft 295 kts 193°
2026-05-04 00:11 45.38959 -122.73245 10350 ft 317 kts 195°
2026-05-04 00:11 45.36758 -122.74127 10578 ft 341 kts 195°
2026-05-04 00:11 45.34409 -122.75091 10887 ft 359 kts 195°
2026-05-04 00:12 45.31988 -122.76088 11494 ft 366 kts 196°
2026-05-04 00:12 45.29517 -122.77090 12162 ft 371 kts 195°
2026-05-04 00:12 45.27046 -122.78074 12829 ft 376 kts 195°
2026-05-04 00:12 45.24509 -122.79067 13517 ft 380 kts 195°
2026-05-04 00:13 45.21937 -122.80067 14136 ft 385 kts 195°
2026-05-04 00:13 45.19341 -122.81075 14637 ft 388 kts 195°
2026-05-04 00:13 45.16739 -122.82091 14797 ft 389 kts 195°
2026-05-04 00:13 45.14078 -122.83130 14846 ft 407 kts 195°
2026-05-04 00:14 45.11290 -122.84218 14843 ft 424 kts 195°
2026-05-04 00:14 45.08415 -122.85342 14848 ft 429 kts 195°
2026-05-04 00:14 45.05542 -122.86466 14846 ft 430 kts 195°
2026-05-04 00:14 45.02657 -122.87595 14846 ft 430 kts 195°
2026-05-04 00:15 44.99768 -122.88723 14838 ft 430 kts 194°
2026-05-04 00:15 44.96890 -122.89840 14837 ft 430 kts 195°
2026-05-04 00:15 44.94006 -122.90955 14795 ft 424 kts 194°
2026-05-04 00:15 44.91176 -122.92048 13935 ft 422 kts 194°
2026-05-04 00:16 44.88349 -122.93144 13119 ft 420 kts 195°
2026-05-04 00:16 44.85544 -122.94235 12371 ft 415 kts 195°
2026-05-04 00:16 44.82788 -122.95304 11654 ft 409 kts 195°
2026-05-04 00:16 44.80057 -122.96358 10961 ft 403 kts 194°
2026-05-04 00:17 44.77409 -122.97374 10763 ft 385 kts 194°
2026-05-04 00:17 44.74890 -122.98342 10636 ft 365 kts 195°
2026-05-04 00:17 44.72499 -122.99265 10520 ft 348 kts 194°
2026-05-04 00:17 44.70213 -123.00151 10394 ft 334 kts 194°
2026-05-04 00:18 44.68016 -123.01000 10279 ft 321 kts 194°
2026-05-04 00:18 44.65897 -123.01817 10163 ft 310 kts 194°
2026-05-04 00:18 44.63875 -123.02593 10025 ft 302 kts 194°
2026-05-04 00:18 44.61874 -123.03356 9896 ft 296 kts 194°
2026-05-04 00:19 44.59882 -123.04118 9643 ft 298 kts 194°
2026-05-04 00:19 44.57873 -123.04888 9230 ft 298 kts 195°
2026-05-04 00:19 44.55881 -123.05652 8851 ft 297 kts 195°
2026-05-04 00:19 44.53890 -123.06415 8498 ft 296 kts 195°
2026-05-04 00:20 44.51911 -123.07172 8211 ft 293 kts 195°
2026-05-04 00:20 44.49937 -123.07927 7816 ft 294 kts 195°
2026-05-04 00:20 44.47966 -123.08680 7334 ft 298 kts 195°
2026-05-04 00:20 44.45941 -123.09452 6833 ft 303 kts 195°
2026-05-04 00:21 44.43901 -123.10226 6414 ft 304 kts 195°
2026-05-04 00:21 44.41856 -123.10998 5988 ft 305 kts 195°
2026-05-04 00:21 44.39806 -123.11774 5571 ft 305 kts 195°
2026-05-04 00:21 44.37757 -123.12553 5165 ft 305 kts 194°
2026-05-04 00:22 44.35712 -123.13335 4761 ft 305 kts 194°
2026-05-04 00:22 44.33691 -123.14109 4350 ft 306 kts 195°
2026-05-04 00:22 44.31639 -123.14893 3936 ft 306 kts 195°
2026-05-04 00:22 44.29590 -123.15684 3523 ft 305 kts 196°
2026-05-04 00:23 44.27550 -123.16516 3116 ft 306 kts 197°
2026-05-04 00:23 44.25510 -123.17371 2701 ft 306 kts 198°
2026-05-04 00:23 44.24553 -123.17775 2504 ft 306 kts 197°
2026-05-04 00:24 44.22923 -123.18488 2173 ft 305 kts 198°
2026-05-04 00:24 44.20933 -123.19335 1767 ft 292 kts 198°
2026-05-04 00:25 44.19256 -123.20027 1623 ft 271 kts 195°
2026-05-04 00:25 44.17969 -123.20330 1387 ft 251 kts 181°
2026-05-04 00:27 44.16284 -123.20245 899 ft 234 kts 179°
2026-05-04 00:27 44.14752 -123.20264 720 ft 205 kts 181°
2026-05-04 00:27 44.13412 -123.20272 433 ft 183 kts 180°
2026-05-04 00:28 44.12263 -123.20258 371 ft 126 kts 179°
2026-05-04 00:28 44.11869 -123.20251 377 ft 10 kts 179°
2026-05-04 00:28 44.11864 -123.20251 377 ft 1 kts 179°
2026-05-04 00:28 44.11856 -123.20251 377 ft 2 kts 179°
2026-05-04 00:29 44.11830 -123.20250 377 ft 5 kts 179°
2026-05-04 00:29 44.11809 -123.20250 377 ft 0 kts 179°
2026-05-04 00:34 44.11801 -123.20250 377 ft 3 kts 179°
2026-05-04 00:34 44.11770 -123.20249 376 ft 6 kts 179°
2026-05-04 00:34 44.11717 -123.20252 376 ft 9 kts 183°
2026-05-04 00:35 44.11671 -123.20271 377 ft 3 kts 137°
2026-05-04 00:35 44.11689 -123.20255 376 ft 4 kts
2026-05-04 00:35 44.11697 -123.20256 376 ft 0 kts 359°
2026-05-04 00:36 44.11700 -123.20256 376 ft 3 kts 359°
2026-05-04 00:36 44.11970 -123.20256 375 ft 79 kts 359°
2026-05-04 00:36 44.12745 -123.20262 370 ft 138 kts
2026-05-04 00:37 44.13751 -123.20262 873 ft 143 kts 358°
2026-05-04 00:37 44.14743 -123.20287 1446 ft 144 kts 357°
2026-05-04 00:37 44.15787 -123.20312 1771 ft 161 kts 357°
2026-05-04 00:37 44.16879 -123.20856 2069 ft 185 kts 321°
2026-05-04 00:38 44.17582 -123.22518 2440 ft 216 kts 281°
2026-05-04 00:38 44.17320 -123.24658 2861 ft 248 kts 243°
2026-05-04 00:38 44.16009 -123.26367 3370 ft 275 kts 204°
2026-05-04 00:38 44.14126 -123.26993 4290 ft 282 kts 184°
2026-05-04 00:39 44.12148 -123.27077 5243 ft 286 kts 178°
2026-05-04 00:39 44.10142 -123.27002 6212 ft 289 kts 178°
2026-05-04 00:39 44.08129 -123.26942 7175 ft 291 kts 179°
2026-05-04 00:39 44.06094 -123.26956 8079 ft 295 kts 180°
2026-05-04 00:40 44.04036 -123.27045 9035 ft 296 kts 180°
2026-05-04 00:40 44.01965 -123.27195 9957 ft 299 kts 182°
2026-05-04 00:40 43.99842 -123.27384 10463 ft 317 kts 183°
2026-05-04 00:40 43.97567 -123.27603 10722 ft 340 kts 182°
2026-05-04 00:41 43.95122 -123.27845 10984 ft 362 kts 182°
2026-05-04 00:41 43.92581 -123.28098 11551 ft 370 kts 182°
2026-05-04 00:41 43.89990 -123.28351 12296 ft 374 kts 182°
2026-05-04 00:41 43.87391 -123.28606 13051 ft 377 kts 183°
2026-05-04 00:42 43.84762 -123.28866 13797 ft 380 kts 182°
2026-05-04 00:42 43.82118 -123.29123 14416 ft 383 kts 182°
2026-05-04 00:42 43.79438 -123.29384 15028 ft 387 kts 182°
2026-05-04 00:42 43.76738 -123.29647 15595 ft 391 kts 182°
2026-05-04 00:43 43.74006 -123.29912 16193 ft 395 kts 182°
2026-05-04 00:43 43.71245 -123.30179 16795 ft 400 kts 182°
2026-05-04 00:43 43.68456 -123.30446 17375 ft 404 kts 182°
2026-05-04 00:43 43.65634 -123.30717 17977 ft 408 kts 183°
2026-05-04 00:44 43.62790 -123.30994 18532 ft 412 kts 182°
2026-05-04 00:44 43.59951 -123.31269 19076 ft 415 kts 182°
2026-05-04 00:44 43.57063 -123.31549 19638 ft 419 kts 182°
2026-05-04 00:44 43.54146 -123.31828 20205 ft 421 kts 182°
2026-05-04 00:45 43.51212 -123.32106 20744 ft 424 kts 182°
2026-05-04 00:45 43.48249 -123.32384 21250 ft 428 kts 182°
2026-05-04 00:45 43.45270 -123.32662 21735 ft 431 kts 182°
2026-05-04 00:45 43.42271 -123.32946 22224 ft 434 kts 182°
2026-05-04 00:46 43.39248 -123.33231 22700 ft 437 kts 182°
2026-05-04 00:46 43.36205 -123.33519 23177 ft 440 kts 182°
2026-05-04 00:46 43.33145 -123.33812 23598 ft 443 kts 182°
2026-05-04 00:46 43.30059 -123.34109 23983 ft 445 kts 182°
2026-05-04 00:47 43.26963 -123.34406 24408 ft 447 kts 182°
2026-05-04 00:47 43.23869 -123.34698 24826 ft 448 kts 182°
2026-05-04 00:47 43.20743 -123.34990 25232 ft 450 kts 182°
2026-05-04 00:47 43.17602 -123.35146 25626 ft 451 kts 177°
2026-05-04 00:48 43.15535 -123.34970 25895 ft 452 kts 174°
2026-05-04 00:48 43.11349 -123.34555 26431 ft 455 kts 174°
2026-05-04 00:48 43.09210 -123.34345 26694 ft 456 kts 174°
2026-05-04 00:48 43.05012 -123.33930 27246 ft 458 kts 174°
2026-05-04 00:49 43.02856 -123.33718 27524 ft 460 kts 174°
2026-05-04 00:49 42.99657 -123.33403 27925 ft 462 kts 174°
2026-05-04 00:49 42.96439 -123.33087 28319 ft 464 kts 174°
2026-05-04 00:49 42.93214 -123.32775 28806 ft 463 kts 174°
2026-05-04 00:50 42.90007 -123.32469 29396 ft 461 kts 174°
2026-05-04 00:50 42.86811 -123.32171 29987 ft 459 kts 174°
2026-05-04 00:50 42.83636 -123.31876 30504 ft 457 kts 174°
2026-05-04 00:50 42.80472 -123.31582 31012 ft 455 kts 174°
2026-05-04 00:51 42.77315 -123.31282 31507 ft 453 kts 174°
2026-05-04 00:51 42.74217 -123.30983 31999 ft 452 kts 174°
2026-05-04 00:51 42.71087 -123.30675 32489 ft 451 kts 174°
2026-05-04 00:51 42.67956 -123.30362 32984 ft 449 kts 174°
2026-05-04 00:52 42.64803 -123.30048 33499 ft 448 kts 174°
2026-05-04 00:52 42.61739 -123.29746 33979 ft 447 kts 174°
2026-05-04 00:52 42.58635 -123.29446 34391 ft 446 kts 174°
2026-05-04 00:52 42.55548 -123.29156 34766 ft 447 kts 174°
2026-05-04 00:53 42.52445 -123.28868 35128 ft 447 kts 174°
2026-05-04 00:53 42.49345 -123.28578 35487 ft 447 kts 174°
2026-05-04 00:53 42.46228 -123.28279 35846 ft 448 kts 174°
2026-05-04 00:53 42.43114 -123.27979 36126 ft 450 kts 174°
2026-05-04 00:54 42.39991 -123.27681 36450 ft 451 kts 174°
2026-05-04 00:54 42.36854 -123.27384 36773 ft 452 kts 174°
2026-05-04 00:54 42.33711 -123.27084 36894 ft 454 kts 174°
2026-05-04 00:54 42.30611 -123.26399 36818 ft 453 kts 162°
2026-05-04 00:55 42.27535 -123.25522 36896 ft 454 kts 171°
2026-05-04 00:55 42.21190 -123.25216 36912 ft 456 kts 179°
2026-05-04 00:56 42.14847 -123.25305 36921 ft 456 kts 177°
2026-05-04 00:56 42.11787 -123.24515 36468 ft 447 kts 143°
2026-05-04 00:56 42.09360 -123.21754 34258 ft 480 kts 146°
2026-05-04 00:56 42.06527 -123.19922 35652 ft 413 kts 169°
2026-05-04 00:57 42.03875 -123.19956 38319 ft 366 kts 188°
2026-05-04 00:57 41.98791 -123.21342 37326 ft 387 kts 189°
2026-05-04 00:57 41.96119 -123.22077 37038 ft 397 kts 189°
2026-05-04 00:58 41.93362 -123.22827 36919 ft 409 kts 188°
2026-05-04 00:58 41.90534 -123.23030 36955 ft 411 kts 171°
2026-05-04 00:58 41.87650 -123.22608 36953 ft 419 kts 172°
2026-05-04 00:59 41.81726 -123.22038 36960 ft 436 kts 175°
2026-05-04 00:59 41.75605 -123.21590 36967 ft 450 kts 174°
2026-05-04 01:00 41.69333 -123.21062 36967 ft 453 kts 174°
2026-05-04 01:00 41.63032 -123.20476 36970 ft 454 kts 173°
2026-05-04 01:01 41.56722 -123.19873 36971 ft 454 kts 173°
2026-05-04 01:01 41.50422 -123.19274 36975 ft 454 kts 174°
2026-05-04 01:02 41.44117 -123.18689 36991 ft 454 kts 174°
2026-05-04 01:02 41.37818 -123.18117 36992 ft 454 kts 173°
2026-05-04 01:03 41.31501 -123.17537 36999 ft 454 kts 173°
2026-05-04 01:03 41.25208 -123.16956 37001 ft 454 kts 173°
2026-05-04 01:04 41.18911 -123.16382 36996 ft 453 kts 173°
2026-05-04 01:04 41.12613 -123.15812 36986 ft 453 kts 173°
2026-05-04 01:05 41.06331 -123.15240 36986 ft 453 kts 173°
2026-05-04 01:05 41.00025 -123.14658 36961 ft 454 kts 173°
2026-05-04 01:06 40.93765 -123.14086 36944 ft 454 kts 173°
2026-05-04 01:06 40.87457 -123.13518 36940 ft 454 kts 173°
2026-05-04 01:07 40.81160 -123.12948 36924 ft 453 kts 173°
2026-05-04 01:07 40.74868 -123.12379 36920 ft 453 kts 173°
2026-05-04 01:08 40.68573 -123.11805 36913 ft 453 kts 173°
2026-05-04 01:08 40.62287 -123.11238 36903 ft 452 kts 173°
2026-05-04 01:09 40.56004 -123.10673 36906 ft 452 kts 173°
2026-05-04 01:09 40.49728 -123.10107 36914 ft 451 kts 173°
2026-05-04 01:10 40.43468 -123.09538 36920 ft 450 kts 173°
2026-05-04 01:10 40.37214 -123.08983 36705 ft 450 kts 173°
2026-05-04 01:10 40.34091 -123.08710 36450 ft 449 kts 173°
2026-05-04 01:11 40.30973 -123.08437 36201 ft 449 kts 173°
2026-05-04 01:11 40.27855 -123.08160 35949 ft 449 kts 172°
2026-05-04 01:11 40.24771 -123.07885 35708 ft 449 kts 172°
2026-05-04 01:11 40.21668 -123.07613 35464 ft 448 kts 172°
2026-05-04 01:12 40.18557 -123.07338 35226 ft 447 kts 172°
2026-05-04 01:12 40.15452 -123.07058 34988 ft 447 kts 171°
2026-05-04 01:12 40.12352 -123.06777 34752 ft 447 kts 171°
2026-05-04 01:12 40.09257 -123.06502 34518 ft 447 kts 171°
2026-05-04 01:13 40.06153 -123.06227 34275 ft 446 kts 171°
2026-05-04 01:13 40.03066 -123.05953 34047 ft 445 kts 171°
2026-05-04 01:13 39.99974 -123.05680 33798 ft 444 kts 171°
2026-05-04 01:13 39.96894 -123.05405 33540 ft 445 kts 171°
2026-05-04 01:14 39.93792 -123.05126 33276 ft 447 kts 171°
2026-05-04 01:14 39.90690 -123.04850 33000 ft 448 kts 171°
2026-05-04 01:14 39.87575 -123.04576 32734 ft 450 kts 171°
2026-05-04 01:14 39.84448 -123.04303 32466 ft 451 kts 171°
2026-05-04 01:15 39.81304 -123.04028 32205 ft 452 kts 171°
2026-05-04 01:15 39.78160 -123.03752 31946 ft 454 kts 171°
2026-05-04 01:15 39.75001 -123.03473 31688 ft 455 kts 171°
2026-05-04 01:15 39.71842 -123.03196 31429 ft 456 kts 171°
2026-05-04 01:16 39.68662 -123.02918 31266 ft 457 kts 171°
2026-05-04 01:16 39.65536 -123.02650 31257 ft 443 kts 171°
2026-05-04 01:16 39.62517 -123.02401 31250 ft 425 kts 171°
2026-05-04 01:16 39.59619 -123.02162 31273 ft 409 kts 170°
2026-05-04 01:17 39.56832 -123.01925 31265 ft 394 kts 170°
2026-05-04 01:17 39.54150 -123.01692 31276 ft 380 kts 169°
2026-05-04 01:17 39.51554 -123.01465 31272 ft 368 kts 169°
2026-05-04 01:17 39.49076 -123.01249 31261 ft 355 kts 169°
2026-05-04 01:18 39.46625 -123.01031 31265 ft 343 kts 169°
2026-05-04 01:18 39.41920 -123.00604 31273 ft 337 kts 169°
2026-05-04 01:19 39.37268 -123.00190 31295 ft 334 kts 168°
2026-05-04 01:19 39.32670 -122.99792 31303 ft 333 kts 168°
2026-05-04 01:20 39.28047 -122.99385 31309 ft 332 kts 168°
2026-05-04 01:20 39.23428 -122.98980 31306 ft 333 kts 168°
2026-05-04 01:21 39.18812 -122.98584 31314 ft 331 kts 168°
2026-05-04 01:21 39.14207 -122.98187 31319 ft 331 kts 168°
2026-05-04 01:22 39.09617 -122.97792 31325 ft 331 kts 168°
2026-05-04 01:22 39.05013 -122.97403 31323 ft 331 kts 168°
2026-05-04 01:23 39.00414 -122.97011 31353 ft 332 kts 167°
2026-05-04 01:23 38.95805 -122.96610 31336 ft 332 kts 167°
2026-05-04 01:24 38.91197 -122.96200 31351 ft 332 kts 167°
2026-05-04 01:24 38.86650 -122.95627 31339 ft 326 kts 160°
2026-05-04 01:25 38.82235 -122.94354 31355 ft 325 kts 159°
2026-05-04 01:25 38.77829 -122.93043 31353 ft 325 kts 159°
2026-05-04 01:26 38.73414 -122.91729 31348 ft 325 kts 159°
2026-05-04 01:26 38.69003 -122.90428 31355 ft 325 kts 159°
2026-05-04 01:26 38.66777 -122.89769 30890 ft 334 kts 159°
2026-05-04 01:27 38.64491 -122.89082 30478 ft 335 kts 158°
2026-05-04 01:27 38.62237 -122.88419 30297 ft 328 kts 158°
2026-05-04 01:27 38.60036 -122.87776 30071 ft 323 kts 158°
2026-05-04 01:27 38.57846 -122.87135 29746 ft 321 kts 158°
2026-05-04 01:28 38.55680 -122.86503 29407 ft 318 kts 158°
2026-05-04 01:28 38.53528 -122.85873 29068 ft 316 kts 158°
2026-05-04 01:28 38.51391 -122.85244 28728 ft 314 kts 158°
2026-05-04 01:28 38.49268 -122.84616 28441 ft 312 kts 158°
2026-05-04 01:29 38.47159 -122.83991 28146 ft 309 kts 158°
2026-05-04 01:29 38.45076 -122.83372 27845 ft 307 kts 158°
2026-05-04 01:29 38.42996 -122.82759 27538 ft 305 kts 158°
2026-05-04 01:29 38.40933 -122.82151 27230 ft 303 kts 158°
2026-05-04 01:30 38.38881 -122.81550 26940 ft 302 kts 158°
2026-05-04 01:30 38.36846 -122.80957 26638 ft 300 kts 158°
2026-05-04 01:30 38.34821 -122.80367 26358 ft 298 kts 158°
2026-05-04 01:30 38.32807 -122.79780 26067 ft 296 kts 158°
2026-05-04 01:31 38.30801 -122.79195 25792 ft 294 kts 159°
2026-05-04 01:31 38.28813 -122.78611 25508 ft 293 kts 159°
2026-05-04 01:31 38.26832 -122.78029 25237 ft 291 kts 159°
2026-05-04 01:31 38.24856 -122.77450 24964 ft 290 kts 159°
2026-05-04 01:32 38.22922 -122.76886 24702 ft 288 kts 160°
2026-05-04 01:32 38.20968 -122.76318 24443 ft 287 kts 160°
2026-05-04 01:32 38.19023 -122.75754 24183 ft 285 kts 160°
2026-05-04 01:32 38.17096 -122.75194 23949 ft 284 kts 160°
2026-05-04 01:33 38.15173 -122.74633 23686 ft 282 kts 160°
2026-05-04 01:33 38.13260 -122.74075 23412 ft 281 kts 160°
2026-05-04 01:33 38.11355 -122.73523 23108 ft 281 kts 162°
2026-05-04 01:33 38.09450 -122.72972 22786 ft 280 kts 162°
2026-05-04 01:34 38.07555 -122.72422 22471 ft 279 kts 163°
2026-05-04 01:34 38.06302 -122.72058 22272 ft 279 kts 163°
2026-05-04 01:34 38.04416 -122.71511 21988 ft 278 kts 163°
2026-05-04 01:34 38.02535 -122.70964 21706 ft 277 kts 163°
2026-05-04 01:35 38.00664 -122.70418 21431 ft 276 kts 163°
2026-05-04 01:35 37.98798 -122.69876 21145 ft 275 kts 163°
2026-05-04 01:35 37.96939 -122.69341 20871 ft 274 kts 163°
2026-05-04 01:35 37.95084 -122.68811 20594 ft 273 kts 164°
2026-05-04 01:36 37.93234 -122.68278 20313 ft 272 kts 164°
2026-05-04 01:36 37.91415 -122.67664 20037 ft 269 kts 157°
2026-05-04 01:36 37.89721 -122.66712 19759 ft 267 kts 148°
2026-05-04 01:36 37.88175 -122.65442 19481 ft 264 kts 140°
2026-05-04 01:37 37.86760 -122.63956 19191 ft 264 kts 139°
2026-05-04 01:37 37.85356 -122.62465 18939 ft 263 kts 139°
2026-05-04 01:37 37.83957 -122.60982 18681 ft 262 kts 139°
2026-05-04 01:37 37.82560 -122.59502 18440 ft 261 kts 139°
2026-05-04 01:38 37.81168 -122.58026 18192 ft 260 kts 139°
2026-05-04 01:38 37.79793 -122.56568 17987 ft 258 kts 139°
2026-05-04 01:38 37.78420 -122.55114 17737 ft 258 kts 139°
2026-05-04 01:38 37.77054 -122.53672 17473 ft 259 kts 139°
2026-05-04 01:39 37.75677 -122.52219 17240 ft 258 kts 139°
2026-05-04 01:39 37.74305 -122.50768 17016 ft 257 kts 139°
2026-05-04 01:39 37.72913 -122.49299 16826 ft 257 kts 139°
2026-05-04 01:39 37.71551 -122.47854 16634 ft 255 kts 139°
2026-05-04 01:40 37.70211 -122.46427 16403 ft 255 kts 139°
2026-05-04 01:40 37.68857 -122.44984 16173 ft 254 kts 139°
2026-05-04 01:40 37.67514 -122.43554 15909 ft 252 kts 139°
2026-05-04 01:40 37.66171 -122.42126 15624 ft 252 kts 139°
2026-05-04 01:41 37.64833 -122.40703 15368 ft 251 kts 139°
2026-05-04 01:41 37.63505 -122.39289 15109 ft 251 kts 139°
2026-05-04 01:41 37.62164 -122.37866 14822 ft 251 kts 139°
2026-05-04 01:41 37.61092 -122.36186 14591 ft 248 kts 114°
2026-05-04 01:42 37.60439 -122.34120 13951 ft 262 kts 114°
2026-05-04 01:42 37.59628 -122.31984 13091 ft 277 kts 117°
2026-05-04 01:42 37.58721 -122.29805 12289 ft 282 kts 118°
2026-05-04 01:42 37.57790 -122.27601 11527 ft 285 kts 119°
2026-05-04 01:43 37.56861 -122.25380 10757 ft 288 kts 119°
2026-05-04 01:43 37.55939 -122.23140 10023 ft 289 kts 118°
2026-05-04 01:43 37.55036 -122.20911 9247 ft 288 kts 118°
2026-05-04 01:43 37.54119 -122.18624 8453 ft 288 kts 118°
2026-05-04 01:44 37.53422 -122.16374 7712 ft 289 kts 101°
2026-05-04 01:44 37.53680 -122.13808 6914 ft 296 kts 68°
2026-05-04 01:44 37.54957 -122.11822 6146 ft 304 kts 37°
2026-05-04 01:44 37.56945 -122.10896 5318 ft 308 kts
2026-05-04 01:45 37.59028 -122.11378 4489 ft 306 kts 332°
2026-05-04 01:45 37.60604 -122.13135 3644 ft 296 kts 298°